Погода в Зиняках

Россия / Нижегородская область     56°32′25″N   43°49′38″E
темп.,
°C
ветер,
м/с
пор.,
м/с
влажн.,
%
обл.,
%
осадки,
мм/ч
давл.,
гПа
погр.,
м
27 октября, ср
ср2700:00+3зюз51277100 0.0 1017411
03:00+2юз51180100 0.0 1017377
06:00+2юз51084100 0.0 1016353
09:00+3юз51177100 0.0 1015473
12:00+5юз61266100 0.0 1013631
15:00+6юз71363100 0.0 1011816
18:00+5зюз71366100 0.0 1010813
21:00+3зюз71396100 1.1 1010614
28 октября, чт
чт2800:00+4зюз61393100 0.1 1010717
03:00+5зюз61287100 0.1 1010589
06:00+5зюз5108882 0.0 1010430
09:00+5зюз4987100 0.0 1011447
12:00+6юз4680100 0.0 1010517
15:00+5ю1295100 2.1 1009137
18:00+5ссв4593100 1.5 1011596
21:00+5с6986100 1.8 1015952
29 октября, пт
пт2900:00+1ссв610765 0.1 1020603
03:00−2ссв510755 0.1 1025493
06:00−3ссв38744 0.0 1028390
09:00−2св236489 0.0 1031340
12:00+1ююв114896 0.0 1031518
15:00+1ююз2445100 0.0 1031523
18:000ююз3856100 0.0 1030208
21:00+1юз61353100 0.0 1029463
30 октября, сб
сб3000:00+2юз7156085 0.0 1028468
03:00+1зюз6147898 0.0 1027389
06:00+2зюз6138973 0.0 1027343
09:00+4зюз61487100 0.0 1027415
12:00+8зюз613745 0.0 1027498
15:00+8зюз61374100 0.0 1027457
18:00+5зюз6138310 0.0 1027340
21:00+4зюз5138719 0.0 1028281
31 октября, вс
вс3100:00+3зюз412885 0.0 1028251
03:00+3юз4128959 0.0 1028254
06:00+3юз4118951 0.0 1027263
09:00+4юз513829 0.0 1027381
12:00+8зюз613675 0.0 1026552
15:00+9юз613695 0.0 1025555
18:00+6юз513795 0.0 1025363
21:00+5юз511845 0.0 1026286